Location: Detroit
(42.3310°N, 83.0460°W)
Time: 23:28:17
(UTC-05:00)

Explorer 7 - All Passes

Search period start: 29 January 2023 00:00
Search period end: 08 February 2023 00:00
Orbit: 480 x 660 km, 50.3° (Epoch: 29 January)

Date Brightness Start Highest point End Pass type
(mag) Time Alt. Az. Time Alt. Az. Time Alt. Az.
29 Jan - 12:41:00 10° S 12:43:44 17° SE 12:46:34 10° E daylight
29 Jan - 14:19:13 10° WSW 14:23:28 89° N 14:28:00 10° ENE daylight
29 Jan - 16:00:10 10° WNW 16:04:13 34° NNW 16:08:28 10° NE daylight
29 Jan - 17:41:17 10° NW 17:45:25 32° N 17:49:42 10° ENE daylight
29 Jan - 19:21:38 10° WNW 19:26:20 71° NNE 19:31:08 10° ESE visible
29 Jan - 21:02:23 10° WNW 21:06:25 28° SW 21:10:29 10° SSE visible
30 Jan - 12:41:05 10° S 12:44:31 26° SE 12:48:07 10° ENE daylight
30 Jan - 14:20:17 10° WSW 14:24:30 66° NNW 14:29:01 10° NE daylight
30 Jan - 16:01:27 10° WNW 16:05:25 31° N 16:09:34 10° NE daylight
30 Jan - 17:42:22 10° NW 17:46:37 36° NNE 17:51:00 10° E daylight
30 Jan - 19:22:38 10° WNW 19:27:21 87° SW 19:32:10 10° SE visible
30 Jan - 21:03:53 10° W 21:07:14 19° SW 21:10:35 10° S visible
31 Jan - 12:41:32 10° SSW 12:45:21 38° SE 12:49:24 10° ENE daylight
31 Jan - 14:21:26 10° W 14:25:35 50° NNW 14:30:00 10° NE daylight
31 Jan - 16:02:42 10° WNW 16:06:37 29° N 16:10:42 10° ENE daylight
31 Jan - 17:43:23 10° NW 17:47:45 41° NNE 17:52:16 10° E daylight
31 Jan - 19:23:40 10° WNW 19:28:18 63° SW 19:33:03 10° SE visible
31 Jan - 21:05:58 10° WSW 21:07:58 13° SW 21:09:59 10° SSW visible
01 Feb - 12:42:12 10° SW 12:46:13 57° SE 12:50:31 10° ENE daylight
01 Feb - 14:22:39 10° W 14:26:41 40° NNW 14:30:58 10° NE daylight
01 Feb - 16:03:53 10° WNW 16:07:49 29° N 16:11:54 10° ENE daylight
01 Feb - 17:44:23 10° NW 17:48:51 51° NNE 17:53:29 10° E daylight
01 Feb - 19:24:45 10° WNW 19:29:13 44° SW 19:33:45 10° SSE visible
02 Feb - 11:05:18 10° SSE 11:07:31 14° SE 11:09:48 10° E daylight
02 Feb - 12:43:04 10° SW 12:47:09 83° SSE 12:51:33 10° ENE daylight
02 Feb - 14:23:54 10° W 14:27:50 34° NNW 14:31:58 10° NE daylight
02 Feb - 16:05:01 10° NW 16:08:59 31° N 16:13:08 10° ENE daylight
02 Feb - 17:45:20 10° NW 17:49:54 65° NNE 17:54:38 10° ESE daylight
02 Feb - 19:25:57 10° WNW 19:30:03 30° SW 19:34:14 10° SSE visible
03 Feb - 11:05:08 10° S 11:08:15 22° SE 11:11:30 10° E daylight
03 Feb - 12:44:03 10° WSW 12:48:09 71° NNW 12:52:30 10° ENE daylight
03 Feb - 14:25:09 10° WNW 14:28:58 31° N 14:33:00 10° NE daylight
03 Feb - 16:06:04 10° NW 16:10:08 34° NNE 16:14:24 10° ENE daylight
03 Feb - 17:46:17 10° WNW 17:50:54 86° NNE 17:55:40 10° ESE daylight
03 Feb - 19:27:20 10° W 19:30:51 21° SW 19:34:24 10° S visible
04 Feb - 11:05:27 10° SSW 11:09:02 33° SE 11:12:48 10° ENE daylight
04 Feb - 12:45:09 10° WSW 12:49:09 53° NNW 12:53:27 10° NE daylight
04 Feb - 14:26:22 10° WNW 14:30:08 29° N 14:34:05 10° ENE daylight
04 Feb - 16:07:04 10° NW 16:11:15 39° NNE 16:15:38 10° E daylight
04 Feb - 17:47:16 10° WNW 17:51:50 69° SW 17:56:33 10° SE daylight
04 Feb - 19:29:10 10° W 19:31:34 14° SW 19:34:00 10° SSW visible
05 Feb - 11:06:01 10° SW 11:09:51 50° SE 11:13:56 10° ENE daylight
05 Feb - 12:46:19 10° W 12:50:13 41° NNW 12:54:23 10° NE daylight
05 Feb - 14:27:32 10° WNW 14:31:18 28° N 14:35:14 10° ENE daylight
05 Feb - 16:08:00 10° NW 16:12:19 47° NNE 16:16:50 10° E daylight
05 Feb - 17:48:18 10° WNW 17:52:43 48° SW 17:57:16 10° SE daylight
06 Feb - 09:29:39 10° SSE 09:31:10 12° SE 09:32:43 10° ESE daylight
06 Feb - 11:06:47 10° SW 11:10:44 75° SE 11:14:56 10° ENE daylight
06 Feb - 12:47:31 10° W 12:51:18 34° NNW 12:55:19 10° NE daylight
06 Feb - 14:28:38 10° NW 14:32:25 29° N 14:36:24 10° ENE daylight
06 Feb - 16:08:56 10° NW 16:13:20 60° NNE 16:17:58 10° ESE daylight
06 Feb - 17:49:25 10° WNW 17:53:32 33° SW 17:57:47 10° SSE daylight
07 Feb - 09:29:06 10° S 09:31:51 19° SE 09:34:43 10° E daylight
07 Feb - 11:07:42 10° WSW 11:11:39 77° NNW 11:15:53 10° ENE daylight
07 Feb - 12:48:43 10° WNW 12:52:24 30° N 12:56:19 10° NE daylight
07 Feb - 14:29:39 10° NW 14:33:32 32° NNE 14:37:37 10° ENE daylight
07 Feb - 16:09:51 10° WNW 16:14:18 79° NNE 16:18:59 10° ESE daylight
07 Feb - 17:50:43 10° W 17:54:18 23° SW 17:58:00 10° S daylight
